TimeCDT,TemperatureF,Dew PointF,Humidity,Sea Level PressureIn,VisibilityMPH,Wind Direction,Wind SpeedMPH,Gust SpeedMPH,PrecipitationIn,Events,Conditions,WindDirDegrees,DateUTC
12:53 AM,60.1,57.0,90,30.02,4.0,SSW,4.6,-,N/A,,Overcast,210,2012-10-04 05:53:00
1:53 AM,59.0,55.9,90,30.02,4.0,West,4.6,-,0.02,Rain,Light Rain,270,2012-10-04 06:53:00
2:53 AM,59.0,55.9,90,30.01,5.0,SSW,5.8,-,0.00,,Overcast,210,2012-10-04 07:53:00
3:53 AM,57.0,54.0,89,30.02,5.0,SSW,5.8,-,N/A,,Mostly Cloudy,210,2012-10-04 08:53:00
4:53 AM,55.9,53.1,90,30.02,4.0,SSW,8.1,-,N/A,,Clear,210,2012-10-04 09:53:00
5:53 AM,55.9,52.0,87,30.01,8.0,SSW,8.1,-,N/A,,Clear,210,2012-10-04 10:53:00
6:53 AM,55.0,50.0,83,30.02,10.0,SW,6.9,-,N/A,,Clear,220,2012-10-04 11:53:00
7:53 AM,57.0,51.1,81,30.01,10.0,SW,8.1,-,N/A,,Clear,220,2012-10-04 12:53:00
8:53 AM,61.0,53.1,75,30.02,10.0,SW,8.1,-,N/A,,Clear,220,2012-10-04 13:53:00
9:53 AM,64.9,53.1,65,30.00,10.0,SSW,11.5,18.4,N/A,,Clear,210,2012-10-04 14:53:00
10:53 AM,71.1,53.1,53,29.99,10.0,SSW,13.8,-,N/A,,Clear,210,2012-10-04 15:53:00
11:53 AM,75.9,52.0,43,29.96,10.0,SSW,17.3,25.3,N/A,,Clear,210,2012-10-04 16:53:00
12:53 PM,77.0,53.1,43,29.94,10.0,SW,19.6,26.5,N/A,,Clear,220,2012-10-04 17:53:00
1:53 PM,75.0,53.1,46,29.94,10.0,SW,15.0,28.8,N/A,,Scattered Clouds,220,2012-10-04 18:53:00
2:53 PM,71.1,52.0,51,29.96,10.0,WSW,24.2,31.1,N/A,,Mostly Cloudy,250,2012-10-04 19:53:00
3:53 PM,64.0,53.1,67,29.98,10.0,West,12.7,-,0.01,,Scattered Clouds,270,2012-10-04 20:53:00
4:53 PM,63.0,46.0,54,30.01,10.0,West,21.9,26.5,N/A,,Scattered Clouds,260,2012-10-04 21:53:00
5:53 PM,57.9,43.0,58,30.02,10.0,West,19.6,24.2,N/A,,Partly Cloudy,260,2012-10-04 22:53:00
6:53 PM,55.9,43.0,62,30.03,10.0,West,13.8,21.9,N/A,,Mostly Cloudy,260,2012-10-04 23:53:00
7:53 PM,55.9,42.1,60,30.04,10.0,WSW,15.0,-,N/A,,Overcast,250,2012-10-05 00:53:00
8:53 PM,55.9,42.1,60,30.05,10.0,West,15.0,23.0,N/A,,Overcast,260,2012-10-05 01:53:00
9:53 PM,54.0,39.0,57,30.06,10.0,West,12.7,-,N/A,,Partly Cloudy,270,2012-10-05 02:53:00
10:53 PM,51.1,35.1,54,30.08,10.0,West,15.0,-,N/A,,Clear,280,2012-10-05 03:53:00
11:53 PM,48.9,34.0,56,30.09,10.0,West,11.5,-,N/A,,Clear,280,2012-10-05 04:53:00